Regional Weather Roundup
Issued by NWS New Orleans/Baton Rouge, LA

Home | Current Version | Previous Version | Text Only | Print | Product List | Glossary On
Versions: 1 2 3 4 5 6 7 8 9 10 11 12 13 14 15 16 17 18 19 20 21 22 23 24 25 26 27 28 29 30 31 32 33 34 35 36 37 38 39 40 41 42 43 44 45 46 47 48 49 50
000
ASUS44 KLIX 310412
RWRLIX
NEW ORLEANS REGIONAL WEATHER ROUNDUP
NATIONAL WEATHER SERVICE NEW ORLEANS LA
1100 PM CDT THU JUL 30 2015

NOTE: "FAIR" INDICATES FEW OR NO CLOUDS BELOW 12,000 FEET WITH NO
      SIGNIFICANT WEATHER AND/OR OBSTRUCTIONS TO VISIBILITY.
      SKY/WX - SKY CONDITION AND SIGNIFICANT WEATHER.
      TMP - AIR TEMPERATURE.     DP    - DEWPOINT TEMPERATURE.
      RH  - RELATIVE HUMIDITY.   PRES  - PRESSURE.
      HI  - HEAT INDEX.          WCI   - WIND CHILL INDEX.

*  THESE STATIONS ARE NOT NWS OR FAA STATIONS AND ARE NOT UNDER
   NWS QUALITY CONTROL.

LAZ038-040-048-061>063-065>067-069-310500-
SOUTHEAST LOUISIANA

CITY           SKY/WX    TMP DP  RH WIND       PRES   REMARKS
N.O. AUDUBON     N/A     82  76  82 MISG        N/A
N.O. INTL ARPT CLOUDY    80  74  81 N3        29.99F
N.O. LAKEFRONT CLOUDY    81  73  76 N9        29.98F
N.O. DOWNTOWN*   N/A     81  73  78 NE6       29.99F
RESERVE*         N/A     77  74  91 CALM      29.99F
SLIDELL        CLOUDY    77  76  96 CALM      29.96F
BATON ROUGE    CLOUDY    76  74  93 W5        29.99F
BOOTHVILLE     CLOUDY    83  75  77 N13G20    29.97F
BELLE CHASSE   CLOUDY    78  75  90 N3        29.98F
BOGALUSA*        N/A     77  73  88 CALM      30.00F
GALLIANO*      NOT AVBL
NEW ROADS*       N/A    N/A N/A N/A W3        30.00F
GONZALES*        N/A     76  76 100 CALM      29.97F
HAMMOND*       CLOUDY    75  72  88 CALM      30.00F
HOUMA*         MOCLDY    76  73  93 E6        30.00R
PORT FOURCHON* CLEAR     81  75  83 N7G14     30.00F

$$

MSZ070-080>082-310500-
SOUTHERN MISSISSIPPI

CITY           SKY/WX    TMP DP  RH WIND       PRES   REMARKS
MCCOMB         CLOUDY    75  73  93 NW5       30.00F
GULFPORT       CLOUDY    76  73  91 NW7       29.95F
BILOXI         CLOUDY    77  76  97 NW1       29.95F
PASCAGOULA     CLOUDY    75  74  96 CALM      29.95F

$$

COASTAL OBSERVATIONS
LAKE AND NEARSHORE STATIONS

STATION/POSITION TIME  TEMP    WIND        PRES    WAVE
                       AIR SEA DIR/SP/G            HT/PER
                 (UTC) (F)     (DEG/KT/KT) (MB)    (FT/S)
PASCAGOULA       0300   76     360/  9/ 11 1013.6
WAVELAND YACHT   0300   77 88  330/  5/  7 1015.4
GRAND ISLE       0300   82 91  350/ 13/ 17 1015.9
SOUTHWEST PASS   0300   86 87  360/ 15/ 18 1015.1
NEW CANAL        0300   81 89   50/ 10/ 12 1015.0
SHELL BEACH      0300   81 88  360/ 13/ 18 1014.7

OFFSHORE STATIONS

STATION/POSITION TIME  TEMP    WIND        PRES    WAVE
                       AIR SEA DIR/SP/G            HT/PER
                 (UTC) (F)     (DEG/KT/KT) (MB)    (FT/S)
64 S DAUPHIN ISL 0350   83 89   80/ 16/ 17 1014.7    2/ 3

$$



USA.gov is the U.S. government's official web portal to all federal, state and local government web resources and services.